Wind_Speed
61 58 53 46 41 32 29 31 31 31 27 20 20 18 20 23 24 27 29 30 31 34 36 35 29 26 26 26 26 22 21 19 25 29 29 28 30 34 37 43 45 43 39 38
62 59 55 50 44 35 31 36 37 31 27 21 21 21 20 22 23 27 32 34 29 33 38 35 23 20 26 24 23 23 20 20 23 24 24 24 26 29 34 36 42 45 44 42
61 62 59 52 46 40 36 40 39 35 28 24 25 23 23 24 26 27 30 30 28 35 37 31 18 18 22 23 21 22 18 17 16 18 20 20 23 26 31 34 35 37 40 42
66 63 57 53 50 44 40 40 41 36 32 29 29 28 22 18 22 27 30 25 29 32 29 28 28 22 14 16 15 18 14 13 9 11 14 15 19 22 24 27 28 27 28 30
68 62 58 55 51 48 47 45 43 41 38 34 32 31 23 17 20 27 18 15 17 24 25 23 21 16 17 18 10 13 10 8 3 2 1 6 10 12 16 19 19 20 21 22
68 66 61 56 55 56 53 49 45 45 43 39 37 33 31 27 23 26 16 5 9 17 29 27 24 20 19 14 5 8 6 9 15 19 19 15 13 11 3 7 10 12 14 17
68 67 63 60 61 61 57 51 50 49 48 44 39 37 33 30 25 25 15 8 9 18 28 35 37 27 14 5 8 14 23 23 20 12 10 5 8 11 13 14 23 26 26 31
70 68 65 65 64 62 59 57 56 53 50 46 42 41 38 36 27 21 24 20 11 3 11 26 30 41 19 3 19 26 28 22 14 9 4 8 18 21 21 21 26 33 36 34
74 69 68 68 65 64 61 59 59 58 56 52 48 41 40 40 34 33 29 30 24 21 21 11 16 20 25 16 24 21 18 12 16 11 11 30 33 34 33 29 27 36 43 44
73 72 72 70 69 69 65 61 60 60 57 51 49 47 44 40 37 38 36 46 42 41 31 23 2 12 29 27 31 24 18 14 20 27 36 45 48 52 45 39 32 38 46 48
71 74 73 74 73 70 67 62 58 56 54 50 45 45 46 46 41 43 45 49 43 39 29 25 19 40 45 32 39 35 31 27 35 42 43 48 45 42 47 47 43 45 46 47
70 70 72 74 69 67 66 61 53 51 50 50 48 47 46 42 43 45 48 49 48 46 37 27 34 43 42 44 49 42 41 38 33 30 43 50 50 47 44 42 47 44 45 53
70 71 72 69 63 60 58 53 49 51 49 46 44 43 44 46 47 50 49 51 50 53 48 36 37 42 44 50 54 57 65 58 34 34 38 38 47 54 52 50 49 51 54 58
69 69 69 67 62 56 49 45 46 49 48 46 47 52 50 49 49 59 57 46 53 57 47 43 46 50 56 61 63 66 70 65 66 58 43 40 44 48 53 56 51 57 63 67
68 64 64 61 61 50 47 50 51 50 53 49 47 48 49 47 53 59 56 48 48 31 48 54 50 55 56 62 68 65 61 61 57 49 48 48 43 48 48 40 46 59 60 71
61 62 63 60 62 59 49 48 50 50 50 41 45 44 38 37 33 51 56 48 46 44 45 55 54 55 62 64 63 62 60 63 57 46 49 55 52 46 50 47 41 60 60 62
60 60 55 56 57 51 48 46 46 39 33 34 37 38 39 38 37 43 48 56 52 52 54 56 60 61 62 67 67 60 58 68 59 54 49 51 44 47 55 63 65 68 69 72
61 58 54 50 46 48 44 44 42 43 36 29 37 44 44 46 41 46 51 54 60 61 60 61 61 65 67 67 67 66 61 56 55 60 56 52 54 38 51 65 71 82 80 82
41 46 51 53 48 49 49 48 44 46 41 40 43 44 46 55 52 49 54 59 59 65 67 65 68 69 68 70 66 76 77 70 68 68 67 68 56 56 53 56 69 81 88 91
44 41 43 42 39 40 44 47 49 47 47 49 48 47 47 52 53 55 57 60 64 65 63 71 77 73 72 72 74 75 75 80 83 81 76 77 70 67 71 72 72 69 74 95
44 44 44 44 44 46 48 48 52 54 54 55 50 47 48 48 54 62 71 68 67 68 67 68 69 73 76 80 82 86 83 84 83 89 88 84 87 87 85 86 87 88 86 86
37 35 39 44 45 46 48 51 50 49 47 45 47 49 51 51 53 60 66 69 71 66 71 74 75 79 83 87 87 94 99 91 86 93 95 91 95 96 89 90 91 91 90 90
29 28 27 27 30 31 28 29 31 34 37 38 39 40 43 45 49 52 55 57 60 64 67 69 69 74 78 79 81 85 87 90 92 95 92 89 85 80 78 78 79 85 89 89
30 24 25 26 24 22 19 21 19 21 22 25 29 34 39 43 46 50 51 51 53 54 55 57 59 61 63 65 64 64 65 66 69 74 76 77 79 80 79 80 78 80 82 87
28 32 36 34 31 23 27 28 26 26 29 29 34 33 34 38 41 42 42 44 46 48 52 55 54 55 58 61 65 62 66 74 73 71 73 74 74 74 75 77 79 81 82 85
33 39 33 38 39 37 38 41 38 40 44 45 41 44 46 46 46 48 47 50 52 57 60 66 65 70 71 78 73 74 75 73 73 70 67 65 63 63 64 66 66 66 68 71
31 36 42 43 48 49 50 44 44 45 44 45 42 38 41 46 50 52 57 59 66 68 72 73 75 75 78 79 80 77 71 65 64 61 60 59 57 56 56 56 57 57 59 61
Wind_Direction
231 234 236 237 238 233 227 219 225 233 246 247 252 261 271 281 292 295 296 295 299 302 304 299 293 289 291 301 309 303 288 258 242 240 236 234 232 231 231 229 228 230 232 227
228 233 236 238 239 233 222 226 230 236 242 247 246 255 263 275 276 278 282 293 299 315 321 313 278 288 293 297 302 303 293 262 237 235 239 240 236 232 234 233 233 233 233 235
226 231 232 236 237 235 226 227 234 240 247 250 255 262 270 268 271 277 285 293 306 323 334 332 294 289 294 295 298 301 298 269 248 240 243 249 246 238 236 237 235 237 239 240
222 226 231 234 238 237 235 234 236 241 246 251 255 263 273 268 262 265 274 296 326 348 340 332 323 298 295 283 289 293 294 268 241 237 241 251 263 263 252 249 251 251 252 252
221 223 227 231 238 239 237 236 237 241 246 253 256 264 270 271 261 263 282 339 10 10 7 342 321 298 298 306 298 285 275 248 203 146 258 265 264 265 262 259 261 265 266 264
220 225 222 225 232 236 237 237 239 243 247 253 256 266 274 273 276 269 286 16 15 12 24 17 1 344 322 324 291 253 156 104 99 104 97 81 76 63 37 282 312 293 294 299
222 225 227 226 228 232 236 239 241 244 246 250 254 263 273 273 267 263 254 207 54 34 27 22 15 0 341 355 184 145 117 121 116 91 82 24 330 297 287 298 292 295 288 301
223 226 228 233 232 233 234 238 241 244 249 253 256 262 268 269 261 237 210 222 227 278 339 22 25 5 344 271 145 139 136 127 124 107 78 262 256 258 257 266 274 284 291 288
220 224 228 233 236 238 238 240 242 245 247 249 255 261 266 265 250 236 224 234 238 244 274 17 22 0 333 270 169 163 169 159 146 162 221 269 251 252 261 260 257 275 281 285
223 224 226 231 235 237 239 242 245 248 252 257 261 264 261 253 253 242 234 238 250 254 266 240 68 337 301 218 202 195 212 200 279 274 274 254 246 246 259 260 261 264 270 277
226 226 228 232 234 238 241 244 251 253 254 257 257 255 254 248 254 239 237 244 244 244 242 240 204 178 250 247 211 221 245 265 270 263 273 270 266 257 252 251 258 264 263 268
229 230 232 236 237 241 245 249 250 252 254 256 256 257 260 256 247 230 228 237 229 229 233 221 195 212 232 244 239 241 253 278 297 279 265 268 269 243 253 244 244 241 250 260
231 233 235 237 239 242 244 245 248 252 250 248 252 253 255 252 243 228 229 228 222 236 237 230 216 220 235 253 251 246 260 274 285 305 308 293 273 262 264 252 248 247 253 262
230 233 237 241 243 246 244 244 249 249 257 259 259 257 259 249 242 233 223 224 239 233 223 240 236 235 241 250 259 262 263 270 267 276 293 308 272 267 268 270 273 261 259 261
230 233 236 239 240 239 248 252 252 259 262 265 263 260 262 260 240 231 224 232 228 227 242 236 235 235 239 247 255 261 265 269 275 286 292 293 300 258 257 265 267 253 258 267
235 235 239 240 241 245 246 246 248 251 261 256 251 257 252 258 252 233 236 226 219 223 233 237 243 248 246 256 260 266 271 271 270 282 290 290 297 260 244 231 244 249 255 254
240 243 247 248 249 248 243 241 250 248 239 251 255 247 249 262 251 243 234 232 233 239 245 240 247 254 259 261 260 272 275 266 275 280 290 287 298 265 245 238 241 245 251 259
237 239 241 243 243 237 238 248 244 233 245 267 261 252 250 249 251 249 240 242 244 252 254 262 262 261 260 265 267 271 278 276 284 280 283 285 285 280 267 251 247 244 255 263
234 235 241 246 247 242 245 245 241 238 251 270 270 274 266 255 251 252 254 250 257 259 260 269 264 272 277 276 279 271 277 282 283 277 283 276 279 278 272 281 258 247 258 263
230 238 237 234 237 240 241 242 238 244 261 272 275 269 267 262 260 262 266 270 270 273 271 271 271 280 282 281 283 283 284 282 280 287 289 284 278 275 278 277 277 273 268 264
240 240 239 239 242 245 243 245 252 259 265 269 271 266 268 270 265 263 262 269 272 273 275 275 277 280 282 282 284 282 287 284 285 287 285 286 287 283 279 278 279 277 272 273
241 246 249 251 255 258 258 260 261 262 263 262 262 263 263 262 260 258 261 266 271 275 276 277 276 278 281 280 282 281 281 284 282 280 280 282 279 278 276 275 275 274 273 271
218 218 234 244 244 247 250 252 254 255 256 257 259 262 263 264 265 266 266 267 268 270 272 276 281 281 281 282 284 283 282 281 278 278 279 279 280 278 274 271 269 265 263 263
196 210 211 218 232 244 260 266 268 272 272 265 256 262 267 270 271 273 275 277 279 281 282 282 282 284 286 284 282 280 278 279 283 282 281 281 280 278 275 272 271 269 266 261
200 221 227 237 247 255 269 262 255 253 258 266 262 263 270 277 280 282 283 283 283 284 288 290 287 295 297 298 297 294 293 294 292 286 283 281 279 275 273 272 271 270 266 264
215 219 235 247 249 252 255 260 269 266 269 274 274 273 278 282 283 285 288 296 298 297 300 304 300 302 303 306 301 299 297 295 292 288 284 281 277 275 272 271 270 268 268 269
226 232 233 238 247 252 254 262 270 273 277 280 280 276 280 288 292 294 297 297 303 302 307 307 305 304 303 301 298 296 294 291 290 289 286 283 281 280 279 277 274 271 270 269
Height
10823 10830 10838 10847 10855 10864 10871 10875 10877 10878 10878 10882 10882 10882 10882 10879 10878 10874 10871 10868 10865 10862 10861 10858 10858 10856 10854 10851 10847 10846 10844 10844 10847 10851 10854 10858 10862 10867 10872 10878 10884 10890 10895 10899
10812 10820 10829 10837 10845 10856 10863 10866 10869 10872 10872 10876 10876 10876 10876 10874 10872 10869 10866 10864 10863 10859 10857 10850 10846 10848 10848 10847 10843 10841 10839 10838 10839 10843 10846 10849 10853 10861 10866 10871 10876 10881 10886 10890
10803 10807 10815 10827 10837 10846 10855 10857 10860 10864 10867 10869 10869 10870 10870 10870 10868 10866 10863 10860 10859 10855 10850 10846 10843 10842 10841 10841 10838 10834 10834 10833 10833 10836 10842 10846 10850 10855 10859 10864 10868 10872 10876 10880
10783 10792 10805 10819 10826 10838 10845 10850 10853 10857 10859 10861 10861 10862 10865 10865 10864 10861 10859 10857 10855 10848 10843 10841 10838 10835 10833 10833 10832 10830 10828 10828 10828 10832 10838 10842 10847 10852 10855 10860 10863 10866 10869 10872
10771 10785 10795 10807 10817 10824 10831 10837 10843 10848 10849 10851 10853 10854 10858 10858 10856 10855 10855 10854 10851 10847 10840 10835 10832 10832 10830 10829 10828 10829 10827 10827 10828 10831 10836 10840 10844 10848 10851 10855 10857 10859 10861 10863
10765 10770 10782 10796 10802 10806 10815 10825 10833 10836 10838 10841 10844 10845 10845 10847 10848 10848 10852 10849 10847 10843 10834 10830 10827 10825 10823 10825 10825 10825 10826 10830 10833 10831 10835 10840 10843 10844 10847 10850 10852 10854 10855 10856
10755 10761 10772 10781 10786 10792 10802 10817 10818 10821 10825 10829 10832 10833 10834 10836 10839 10840 10843 10843 10839 10836 10829 10826 10823 10824 10825 10822 10822 10823 10824 10823 10827 10833 10834 10835 10839 10842 10844 10846 10845 10846 10848 10850
10746 10752 10761 10768 10775 10782 10792 10798 10803 10808 10813 10818 10822 10822 10824 10827 10830 10831 10833 10831 10829 10826 10826 10821 10818 10826 10831 10831 10829 10823 10821 10824 10823 10824 10829 10835 10839 10837 10835 10836 10838 10838 10838 10841
10731 10742 10749 10753 10762 10770 10779 10786 10791 10796 10801 10805 10810 10814 10816 10817 10819 10820 10824 10820 10819 10817 10816 10814 10816 10827 10839 10843 10833 10828 10826 10823 10820 10823 10822 10822 10824 10827 10825 10827 10827 10828 10827 10829
10722 10731 10734 10740 10746 10753 10763 10773 10779 10784 10789 10794 10799 10803 10803 10807 10807 10807 10810 10804 10807 10807 10808 10808 10806 10817 10840 10839 10836 10827 10823 10823 10817 10814 10810 10804 10807 10815 10814 10818 10817 10819 10816 10816
10713 10717 10724 10726 10733 10742 10752 10762 10769 10773 10777 10781 10784 10787 10788 10791 10793 10795 10795 10793 10793 10794 10795 10793 10787 10786 10829 10830 10823 10820 10820 10815 10812 10806 10799 10799 10799 10800 10803 10807 10810 10811 10808 10805
10701 10708 10712 10717 10727 10734 10743 10751 10756 10759 10764 10767 10770 10773 10775 10778 10777 10778 10779 10780 10781 10783 10784 10782 10785 10794 10800 10803 10804 10803 10803 10804 10802 10797 10791 10793 10792 10793 10794 10796 10798 10799 10799 10797
10689 10694 10700 10708 10716 10723 10731 10737 10740 10744 10747 10753 10758 10760 10761 10762 10763 10764 10767 10770 10770 10771 10769 10772 10773 10779 10780 10780 10783 10785 10787 10790 10790 10785 10781 10778 10778 10781 10784 10786 10788 10790 10787 10784
10677 10682 10688 10697 10704 10712 10719 10725 10727 10729 10735 10741 10744 10744 10745 10746 10748 10750 10755 10758 10759 10758 10762 10762 10766 10767 10767 10767 10766 10766 10770 10771 10772 10775 10770 10768 10765 10765 10770 10773 10778 10778 10772 10770
10661 10671 10676 10684 10693 10701 10708 10713 10715 10718 10721 10726 10729 10729 10729 10730 10732 10736 10745 10746 10747 10750 10750 10750 10749 10751 10753 10754 10754 10755 10758 10757 10757 10757 10754 10754 10753 10755 10758 10762 10758 10755 10750 10748
10654 10660 10665 10675 10682 10690 10697 10700 10704 10707 10709 10711 10713 10715 10717 10719 10719 10724 10731 10735 10737 10737 10738 10740 10742 10742 10741 10741 10741 10744 10744 10744 10746 10746 10743 10741 10740 10738 10743 10746 10748 10730 10727 10727
10644 10648 10657 10662 10667 10677 10686 10690 10693 10695 10696 10697 10701 10705 10706 10708 10709 10712 10716 10722 10723 10724 10725 10723 10722 10724 10725 10726 10725 10726 10726 10727 10726 10730 10730 10730 10726 10728 10729 10731 10728 10721 10717 10710
10632 10641 10644 10649 10658 10665 10672 10678 10682 10685 10686 10687 10688 10691 10695 10697 10699 10701 10703 10705 10708 10707 10709 10711 10711 10710 10711 10713 10711 10712 10711 10711 10713 10715 10714 10711 10712 10715 10717 10716 10714 10706 10698 10692
10619 10626 10631 10637 10647 10656 10661 10666 10670 10673 10673 10675 10676 10675 10677 10680 10682 10683 10686 10689 10691 10692 10694 10694 10695 10695 10693 10692 10693 10691 10690 10691 10691 10694 10695 10695 10692 10694 10693 10697 10697 10693 10685 10675
10612 10617 10621 10628 10636 10643 10649 10653 10657 10661 10662 10663 10662 10661 10662 10664 10665 10667 10668 10669 10671 10673 10674 10676 10676 10673 10670 10669 10666 10667 10667 10667 10667 10667 10668 10669 10671 10669 10671 10669 10668 10665 10662 10656
10601 10608 10614 10619 10624 10629 10635 10640 10644 10647 10648 10649 10650 10649 10647 10647 10649 10651 10655 10657 10657 10659 10656 10654 10653 10653 10650 10649 10646 10644 10645 10644 10641 10643 10640 10636 10639 10640 10640 10637 10634 10635 10631 10627
10592 10597 10601 10606 10611 10616 10621 10625 10628 10629 10632 10634 10634 10635 10637 10639 10642 10645 10645 10644 10642 10638 10637 10636 10634 10633 10630 10629 10625 10624 10623 10620 10616 10617 10615 10610 10611 10609 10607 10605 10601 10598 10598 10597
10583 10586 10592 10597 10601 10605 10608 10610 10611 10613 10616 10618 10621 10622 10624 10626 10628 10630 10631 10630 10629 10627 10624 10621 10615 10614 10613 10609 10605 10602 10596 10592 10589 10588 10584 10580 10576 10572 10570 10568 10566 10564 10561 10560
10576 10581 10585 10589 10595 10597 10599 10601 10603 10604 10605 10607 10609 10610 10612 10613 10613 10613 10613 10613 10611 10609 10607 10605 10603 10600 10595 10591 10587 10580 10573 10567 10563 10558 10553 10549 10545 10542 10539 10537 10535 10532 10531 10529
10569 10573 10577 10581 10585 10587 10590 10591 10593 10594 10595 10597 10598 10599 10599 10599 10598 10598 10598 10596 10593 10590 10587 10585 10580 10575 10571 10566 10558 10551 10546 10540 10534 10528 10523 10518 10513 10509 10506 10503 10501 10499 10498 10496
10563 10567 10571 10574 10575 10577 10579 10580 10583 10585 10585 10586 10586 10586 10584 10583 10583 10582 10580 10577 10572 10569 10566 10562 10554 10549 10542 10536 10529 10522 10515 10509 10502 10498 10495 10491 10486 10482 10479 10476 10473 10471 10469 10468
10558 10561 10562 10564 10565 10566 10568 10570 10571 10574 10574 10573 10572 10571 10570 10568 10567 10564 10561 10557 10553 10548 10544 10537 10531 10526 10519 10511 10504 10497 10491 10486 10481 10473 10469 10465 10463 10460 10457 10454 10451 10448 10445 10444